星链-1802 (STARLINK-1802 )

导读

STARLINK-1802是美国太空探索技术公司发射的星链卫星,于2020年10月18日成功入轨,隶属于星链低轨互联网星座。它主要为全球提供高速互联网服务,覆盖偏远地区与网络基础设施薄弱区域。作为星链网络的组成部分,它补充了星座的通信覆盖与带宽能力,推动全球卫星互联网建设进程。

基本信息
目录编号:
46702
目录名称:
STARLINK-1802
国际标识:
2020-073AJ
轨道中心:
EARTH
卫星名称:
星链-1802
卫星全名:
星链-1802 (STARLINK-1802 )
卫星状态:
在轨 (已飞行2154 天)
发射日期:
2020-10-18 UTC
国别 :
美国 (US)
星等 :
--
轨道信息
数据来源 国际轨道数据
星历时间: 2026-09-11T00:10:05+0800
13小时前
查看轨道信息
半长轴: 6802.093km
偏心率: 0.0000996
轨道倾角: 53.154°
近地点辐角 186.114°
升交点赤经 67.050°
平近点角 173.986°
近地点: 423.278km
远地点: 424.634km
周期: 93.052分钟
每日圈数: 15.475296
详细信息
固有亮度:
5
最大亮度:
2.5
卫星平台:
Starlink V1.0
覆盖范围:
全球
运营商:
太空探索技术公司
运营商所在国:
美国
制造商(研发单位):
太空探索技术公司
制造商所在国:
美国
使用方式:
暂无
卫星简介
星链(Starlink)计划是由太空探索技术公司(SpaceX)提出的一个巨型低轨卫星互联网星座项目,计划在2019年至2024年间在太空搭建由约1.2万颗卫星组成的“星链”网络,其中1584颗将部署在地球上空550千米处的近地轨道,并从2020年开始工作。该卫星仍在工作。
2D轨道图
3D轨道图
轨道高度分析图
轨道倾角分析图
轨道综合分析图
查看轨道综合分析图
与全量物体交会距离演化趋势
与全量物体交会风险概率演化趋势